| time (UTC) | temp F | wind direction | speed MPH | gust MPH | rain 1hr in | rain 24hr in | rain mn in | humidity % | barometer mb |
| 20260509201520 | 42 | 343 | 0.0 | 2.0 | 0.00 | 0.00 | 0.00 | 77 | 1028.7 |
| 20260509201011 | 43 | 343 | 0.0 | 3.0 | 0.00 | 0.00 | 0.00 | 76 | 1028.6 |
| 20260509200509 | 43 | 341 | 1.0 | 3.0 | 0.00 | 0.00 | 0.00 | 76 | 1028.6 |
| 20260509200018 | 43 | 329 | 0.0 | 2.0 | 0.00 | 0.00 | 0.00 | 76 | 1028.5 |
| 20260509195505 | 44 | 267 | 0.0 | 0.0 | 0.00 | 0.00 | 0.00 | 76 | 1028.4 |
| 20260509195005 | 44 | 261 | 0.0 | 0.0 | 0.00 | 0.00 | 0.00 | 76 | 1028.3 |
| 20260509194523 | 44 | 261 | 0.0 | 0.0 | 0.00 | 0.00 | 0.00 | 76 | 1028.2 |
| 20260509194008 | 44 | 261 | 0.0 | 0.0 | 0.00 | 0.00 | 0.00 | 76 | 1028.2 |
| 20260509193511 | 45 | 245 | 0.0 | 0.0 | 0.00 | 0.00 | 0.00 | 75 | 1028.2 |
| 20260509193025 | 45 | 245 | 0.0 | 0.0 | 0.00 | 0.00 | 0.00 | 75 | 1028.1 |
| 20260509192505 | 45 | 245 | 0.0 | 0.0 | 0.00 | 0.00 | 0.00 | 75 | 1028.0 |
| 20260509192009 | 45 | 248 | 0.0 | 0.0 | 0.00 | 0.00 | 0.00 | 74 | 1027.9 |
| 20260509191522 | 45 | 248 | 0.0 | 0.0 | 0.00 | 0.00 | 0.00 | 74 | 1027.9 |
| 20260509191011 | 45 | 248 | 0.0 | 0.0 | 0.00 | 0.00 | 0.00 | 74 | 1027.9 |
| 20260509190508 | 45 | 248 | 0.0 | 0.0 | 0.00 | 0.00 | 0.00 | 75 | 1027.8 |
| 20260509190022 | 45 | 248 | 0.0 | 0.0 | 0.00 | 0.00 | 0.00 | 75 | 1027.7 |
| 20260509185509 | 45 | 244 | 0.0 | 1.0 | 0.00 | 0.00 | 0.00 | 75 | 1027.6 |
| 20260509185014 | 45 | 244 | 0.0 | 2.0 | 0.00 | 0.00 | 0.00 | 75 | 1027.6 |
| 20260509184527 | 45 | 243 | 0.0 | 2.0 | 0.00 | 0.00 | 0.00 | 75 | 1027.6 |
| 20260509184006 | 45 | 260 | 0.0 | 0.0 | 0.00 | 0.00 | 0.00 | 73 | 1027.6 |
| 20260509183509 | 45 | 260 | 0.0 | 0.0 | 0.00 | 0.00 | 0.00 | 72 | 1027.6 |
| 20260509183022 | 46 | 260 | 0.0 | 0.0 | 0.00 | 0.00 | 0.00 | 72 | 1027.5 |
| 20260509182507 | 46 | 260 | 0.0 | 0.0 | 0.00 | 0.00 | 0.00 | 71 | 1027.5 |
| 20260509182013 | 46 | 257 | 0.0 | 0.0 | 0.00 | 0.00 | 0.00 | 71 | 1027.3 |
| 20260509181515 | 47 | 253 | 0.0 | 2.0 | 0.00 | 0.00 | 0.00 | 72 | 1027.3 |
| 20260509181007 | 46 | 243 | 0.0 | 3.0 | 0.00 | 0.00 | 0.00 | 72 | 1027.3 |
| 20260509180509 | 46 | 243 | 1.0 | 3.0 | 0.00 | 0.00 | 0.00 | 72 | 1027.2 |
| 20260509180019 | 46 | 250 | 0.0 | 0.0 | 0.00 | 0.00 | 0.00 | 72 | 1027.3 |
| 20260509175510 | 46 | 251 | 0.0 | 0.0 | 0.00 | 0.00 | 0.00 | 71 | 1027.3 |
| 20260509175009 | 46 | 251 | 0.0 | 0.0 | 0.00 | 0.00 | 0.00 | 72 | 1027.3 |
| 20260509174522 | 46 | 247 | 0.0 | 0.0 | 0.00 | 0.00 | 0.00 | 72 | 1027.3 |
| 20260509174013 | 46 | 248 | 0.0 | 0.0 | 0.00 | 0.00 | 0.00 | 72 | 1027.3 |
| 20260509173509 | 47 | 248 | 0.0 | 0.0 | 0.00 | 0.00 | 0.00 | 72 | 1027.4 |
| 20260509173022 | 47 | 248 | 0.0 | 3.0 | 0.00 | 0.00 | 0.00 | 71 | 1027.4 |
| 20260509172512 | 47 | 248 | 0.0 | 3.0 | 0.00 | 0.00 | 0.00 | 71 | 1027.4 |
| 20260509172008 | 47 | 248 | 1.0 | 3.0 | 0.00 | 0.00 | 0.00 | 72 | 1027.5 |
| 20260509171524 | 47 | 254 | 2.0 | 3.0 | 0.00 | 0.00 | 0.00 | 72 | 1027.5 |
| 20260509171007 | 47 | 262 | 1.0 | 3.0 | 0.00 | 0.00 | 0.00 | 72 | 1027.6 |
| 20260509170506 | 47 | 258 | 0.0 | 4.0 | 0.00 | 0.00 | 0.00 | 72 | 1027.5 |
| 20260509170018 | 48 | 264 | 1.0 | 6.0 | 0.00 | 0.00 | 0.00 | 71 | 1027.6 |
| 20260509165506 | 47 | 266 | 2.0 | 6.0 | 0.00 | 0.00 | 0.00 | 72 | 1027.4 |
| 20260509165006 | 47 | 289 | 2.0 | 6.0 | 0.00 | 0.00 | 0.00 | 73 | 1027.4 |
| 20260509164523 | 47 | 262 | 2.0 | 3.0 | 0.00 | 0.00 | 0.00 | 73 | 1027.5 |
| 20260509164003 | 47 | 262 | 1.0 | 3.0 | 0.00 | 0.00 | 0.00 | 73 | 1027.6 |
| 20260509163513 | 47 | 262 | 1.0 | 3.0 | 0.00 | 0.00 | 0.00 | 73 | 1027.6 |
| 20260509163008 | 47 | 257 | 2.0 | 4.0 | 0.00 | 0.00 | 0.00 | 73 | 1027.6 |
| 20260509162503 | 47 | 254 | 1.0 | 4.0 | 0.00 | 0.00 | 0.00 | 74 | 1027.6 |
| 20260509162002 | 47 | 256 | 1.0 | 3.0 | 0.00 | 0.00 | 0.00 | 75 | 1027.6 |
| 20260509161508 | 47 | 243 | 1.0 | 4.0 | 0.00 | 0.00 | 0.00 | 75 | 1027.7 |
| 20260509161007 | 47 | 251 | 2.0 | 4.0 | 0.00 | 0.00 | 0.00 | 75 | 1027.7 |
| 20260509160507 | 47 | 256 | 3.0 | 4.0 | 0.00 | 0.00 | 0.00 | 75 | 1027.7 |
| 20260509160024 | 47 | 256 | 3.0 | 4.0 | 0.00 | 0.00 | 0.00 | 75 | 1027.7 |
| 20260509155508 | 47 | 258 | 3.0 | 4.0 | 0.00 | 0.00 | 0.00 | 75 | 1027.7 |
| 20260509155007 | 47 | 262 | 3.0 | 6.0 | 0.00 | 0.00 | 0.00 | 75 | 1027.7 |
| 20260509154503 | 47 | 264 | 3.0 | 6.0 | 0.00 | 0.00 | 0.00 | 76 | 1027.8 |
| 20260509154007 | 47 | 250 | 3.0 | 5.0 | 0.00 | 0.00 | 0.00 | 76 | 1027.8 |
| 20260509153505 | 46 | 251 | 3.0 | 8.0 | 0.00 | 0.00 | 0.00 | 76 | 1027.7 |
| 20260509153011 | 46 | 249 | 3.0 | 8.0 | 0.00 | 0.00 | 0.00 | 75 | 1027.8 |
| 20260509152503 | 47 | 249 | 4.0 | 8.0 | 0.00 | 0.00 | 0.00 | 75 | 1027.7 |
| 20260509152011 | 47 | 248 | 4.0 | 7.0 | 0.00 | 0.00 | 0.00 | 75 | 1027.7 |
| 20260509151509 | 47 | 266 | 4.0 | 7.0 | 0.00 | 0.00 | 0.00 | 76 | 1027.7 |
| 20260509151010 | 47 | 251 | 4.0 | 6.0 | 0.00 | 0.00 | 0.00 | 76 | 1027.7 |
| 20260509150506 | 47 | 253 | 3.0 | 6.0 | 0.00 | 0.00 | 0.00 | 76 | 1027.7 |
| 20260509150013 | 47 | 250 | 3.0 | 5.0 | 0.00 | 0.00 | 0.00 | 76 | 1027.7 |
| 20260509145507 | 47 | 255 | 3.0 | 5.0 | 0.00 | 0.00 | 0.00 | 76 | 1027.7 |
| 20260509145011 | 47 | 249 | 3.0 | 5.0 | 0.00 | 0.00 | 0.00 | 77 | 1027.7 |
| 20260509144521 | 47 | 245 | 2.0 | 5.0 | 0.00 | 0.00 | 0.00 | 77 | 1027.7 |
| 20260509144011 | 47 | 249 | 3.0 | 6.0 | 0.00 | 0.00 | 0.00 | 77 | 1027.7 |
| 20260509143508 | 47 | 250 | 3.0 | 7.0 | 0.00 | 0.00 | 0.00 | 77 | 1027.7 |
| 20260509143022 | 47 | 255 | 3.0 | 7.0 | 0.00 | 0.00 | 0.00 | 77 | 1027.6 |
| 20260509142503 | 47 | 226 | 2.0 | 6.0 | 0.00 | 0.00 | 0.00 | 77 | 1027.6 |
| 20260509142003 | 47 | 246 | 3.0 | 5.0 | 0.00 | 0.00 | 0.00 | 77 | 1027.6 |
| 20260509141508 | 47 | 251 | 3.0 | 5.0 | 0.00 | 0.00 | 0.00 | 77 | 1027.6 |
| 20260509141002 | 47 | 243 | 3.0 | 5.0 | 0.00 | 0.00 | 0.00 | 76 | 1027.6 |
| 20260509140503 | 47 | 249 | 3.0 | 6.0 | 0.00 | 0.00 | 0.00 | 76 | 1027.6 |
| 20260509140010 | 48 | 255 | 4.0 | 7.0 | 0.00 | 0.00 | 0.00 | 76 | 1027.6 |
| 20260509135510 | 48 | 249 | 4.0 | 7.0 | 0.00 | 0.00 | 0.00 | 76 | 1027.6 |
| 20260509135007 | 47 | 244 | 4.0 | 7.0 | 0.00 | 0.00 | 0.00 | 77 | 1027.7 |
| 20260509134517 | 47 | 256 | 3.0 | 4.0 | 0.00 | 0.00 | 0.00 | 77 | 1027.7 |
| 20260509134009 | 47 | 267 | 3.0 | 4.0 | 0.00 | 0.00 | 0.00 | 77 | 1027.7 |
| 20260509133516 | 47 | 258 | 1.0 | 4.0 | 0.00 | 0.00 | 0.00 | 78 | 1027.7 |
| 20260509133020 | 47 | 258 | 2.0 | 4.0 | 0.00 | 0.00 | 0.00 | 78 | 1027.7 |
| 20260509132512 | 47 | 251 | 2.0 | 3.0 | 0.00 | 0.00 | 0.00 | 78 | 1027.7 |
| 20260509132011 | 47 | 254 | 2.0 | 4.0 | 0.00 | 0.00 | 0.00 | 78 | 1027.7 |
| 20260509131522 | 47 | 258 | 2.0 | 4.0 | 0.00 | 0.00 | 0.00 | 77 | 1027.8 |
| 20260509131008 | 47 | 255 | 0.0 | 3.0 | 0.00 | 0.00 | 0.00 | 77 | 1027.7 |
| 20260509130504 | 47 | 250 | 0.0 | 4.0 | 0.00 | 0.00 | 0.00 | 77 | 1027.8 |
| 20260509130008 | 47 | 254 | 2.0 | 4.0 | 0.00 | 0.00 | 0.00 | 77 | 1027.8 |
| 20260509125509 | 47 | 246 | 1.0 | 5.0 | 0.00 | 0.00 | 0.00 | 78 | 1027.8 |
| 20260509125006 | 47 | 258 | 3.0 | 5.0 | 0.00 | 0.00 | 0.00 | 78 | 1027.9 |
| 20260509124511 | 47 | 247 | 2.0 | 6.0 | 0.00 | 0.00 | 0.00 | 78 | 1027.9 |
| 20260509124004 | 47 | 251 | 3.0 | 6.0 | 0.00 | 0.00 | 0.00 | 79 | 1028.0 |
| 20260509123508 | 47 | 268 | 2.0 | 4.0 | 0.00 | 0.00 | 0.00 | 79 | 1028.0 |
| 20260509123016 | 47 | 261 | 2.0 | 4.0 | 0.00 | 0.00 | 0.00 | 78 | 1028.0 |
| 20260509122512 | 47 | 267 | 2.0 | 4.0 | 0.00 | 0.00 | 0.00 | 79 | 1028.1 |
| 20260509122007 | 47 | 261 | 2.0 | 4.0 | 0.00 | 0.00 | 0.00 | 79 | 1028.1 |
| 20260509121529 | 47 | 249 | 2.0 | 5.0 | 0.00 | 0.00 | 0.00 | 79 | 1028.1 |
| 20260509121011 | 46 | 242 | 3.0 | 5.0 | 0.00 | 0.00 | 0.00 | 79 | 1028.0 |
| 20260509120508 | 46 | 249 | 2.0 | 5.0 | 0.00 | 0.00 | 0.00 | 79 | 1028.1 |
| 20260509120030 | 46 | 256 | 3.0 | 6.0 | 0.00 | 0.00 | 0.00 | 80 | 1028.1 |
| 20260509115515 | 46 | 264 | 3.0 | 6.0 | 0.00 | 0.00 | 0.00 | 81 | 1028.1 |
| 20260509115003 | 46 | 259 | 0.0 | 4.0 | 0.00 | 0.00 | 0.00 | 81 | 1028.1 |
| 20260509114527 | 46 | 267 | 2.0 | 4.0 | 0.00 | 0.00 | 0.00 | 81 | 1028.0 |
| 20260509114011 | 46 | 260 | 2.0 | 4.0 | 0.00 | 0.00 | 0.00 | 81 | 1028.0 |
| 20260509113506 | 46 | 260 | 2.0 | 4.0 | 0.00 | 0.00 | 0.00 | 81 | 1028.0 |
| 20260509113012 | 46 | 258 | 0.0 | 3.0 | 0.00 | 0.00 | 0.00 | 80 | 1027.9 |
| 20260509112508 | 46 | 254 | 0.0 | 4.0 | 0.00 | 0.00 | 0.00 | 80 | 1027.9 |
| 20260509112010 | 47 | 258 | 2.0 | 4.0 | 0.00 | 0.00 | 0.00 | 80 | 1027.8 |
| 20260509111516 | 47 | 249 | 2.0 | 4.0 | 0.00 | 0.00 | 0.00 | 80 | 1027.8 |
| 20260509111009 | 47 | 245 | 2.0 | 4.0 | 0.00 | 0.00 | 0.00 | 80 | 1027.7 |
| 20260509110509 | 47 | 250 | 2.0 | 4.0 | 0.00 | 0.00 | 0.00 | 80 | 1027.6 |
| 20260509110027 | 46 | 246 | 1.0 | 4.0 | 0.00 | 0.00 | 0.00 | 81 | 1027.6 |
| 20260509105508 | 47 | 252 | 1.0 | 3.0 | 0.00 | 0.00 | 0.00 | 80 | 1027.6 |
| 20260509105008 | 47 | 251 | 1.0 | 3.0 | 0.00 | 0.00 | 0.00 | 80 | 1027.6 |
| 20260509104524 | 47 | 250 | 0.0 | 0.0 | 0.00 | 0.00 | 0.00 | 79 | 1027.5 |
| 20260509104010 | 47 | 244 | 0.0 | 5.0 | 0.00 | 0.00 | 0.00 | 79 | 1027.5 |
| 20260509103511 | 47 | 244 | 0.0 | 5.0 | 0.00 | 0.00 | 0.00 | 79 | 1027.4 |
| 20260509103009 | 47 | 266 | 2.0 | 5.0 | 0.00 | 0.00 | 0.00 | 78 | 1027.3 |
| 20260509102505 | 48 | 252 | 2.0 | 5.0 | 0.00 | 0.00 | 0.00 | 78 | 1027.3 |
| 20260509102007 | 48 | 242 | 2.0 | 7.0 | 0.00 | 0.00 | 0.00 | 78 | 1027.3 |
| 20260509101516 | 48 | 263 | 3.0 | 7.0 | 0.00 | 0.00 | 0.00 | 78 | 1027.3 |
| 20260509101008 | 48 | 241 | 4.0 | 7.0 | 0.00 | 0.00 | 0.00 | 78 | 1027.3 |
| 20260509100509 | 48 | 241 | 3.0 | 8.0 | 0.00 | 0.00 | 0.00 | 78 | 1027.2 |
| 20260509100029 | 48 | 260 | 4.0 | 8.0 | 0.00 | 0.00 | 0.00 | 78 | 1027.3 |
| 20260509095508 | 48 | 256 | 3.0 | 7.0 | 0.00 | 0.00 | 0.00 | 77 | 1027.2 |
| 20260509095014 | 48 | 243 | 2.0 | 5.0 | 0.00 | 0.00 | 0.00 | 77 | 1027.2 |
| 20260509094528 | 48 | 248 | 2.0 | 5.0 | 0.00 | 0.00 | 0.00 | 76 | 1027.2 |
| 20260509094008 | 48 | 243 | 1.0 | 3.0 | 0.00 | 0.00 | 0.00 | 76 | 1027.2 |
| 20260509093508 | 49 | 238 | 0.0 | 7.0 | 0.00 | 0.00 | 0.00 | 76 | 1027.3 |
| 20260509093026 | 49 | 239 | 3.0 | 7.0 | 0.00 | 0.00 | 0.00 | 76 | 1027.3 |
| 20260509092516 | 49 | 246 | 2.0 | 7.0 | 0.00 | 0.00 | 0.00 | 76 | 1027.3 |
| 20260509092010 | 48 | 233 | 2.0 | 6.0 | 0.00 | 0.00 | 0.00 | 76 | 1027.3 |
| 20260509091528 | 48 | 232 | 2.0 | 5.0 | 0.00 | 0.00 | 0.00 | 76 | 1027.3 |
| 20260509091007 | 48 | 261 | 3.0 | 5.0 | 0.00 | 0.00 | 0.00 | 76 | 1027.2 |
| 20260509090509 | 49 | 239 | 2.0 | 8.0 | 0.00 | 0.00 | 0.00 | 76 | 1027.1 |
| 20260509090020 | 48 | 237 | 4.0 | 8.0 | 0.00 | 0.00 | 0.00 | 76 | 1027.0 |
| 20260509085507 | 49 | 257 | 4.0 | 8.0 | 0.00 | 0.00 | 0.00 | 76 | 1027.0 |
| 20260509085008 | 48 | 246 | 4.0 | 8.0 | 0.00 | 0.00 | 0.00 | 76 | 1027.0 |
| 20260509084527 | 49 | 249 | 4.0 | 8.0 | 0.00 | 0.00 | 0.00 | 76 | 1026.9 |
| 20260509084013 | 49 | 231 | 3.0 | 7.0 | 0.00 | 0.00 | 0.00 | 75 | 1026.9 |
| 20260509083509 | 49 | 266 | 3.0 | 7.0 | 0.00 | 0.00 | 0.00 | 74 | 1026.9 |
| 20260509083033 | 49 | 236 | 3.0 | 6.0 | 0.00 | 0.00 | 0.00 | 74 | 1026.9 |
| 20260509082511 | 49 | 253 | 3.0 | 5.0 | 0.00 | 0.00 | 0.00 | 74 | 1026.8 |
| 20260509082010 | 49 | 248 | 2.0 | 5.0 | 0.00 | 0.00 | 0.00 | 74 | 1026.7 |
| 20260509081530 | 49 | 254 | 0.0 | 8.0 | 0.00 | 0.00 | 0.00 | 74 | 1026.7 |
| 20260509081009 | 49 | 250 | 3.0 | 8.0 | 0.00 | 0.00 | 0.00 | 75 | 1026.7 |
| 20260509080511 | 49 | 262 | 3.0 | 6.0 | 0.00 | 0.00 | 0.00 | 76 | 1026.7 |
| 20260509080022 | 49 | 251 | 3.0 | 5.0 | 0.00 | 0.00 | 0.00 | 76 | 1026.7 |
| 20260509075507 | 49 | 250 | 2.0 | 4.0 | 0.00 | 0.00 | 0.00 | 76 | 1026.6 |
| 20260509075007 | 50 | 237 | 2.0 | 4.0 | 0.00 | 0.00 | 0.00 | 75 | 1026.6 |
| 20260509074516 | 50 | 237 | 3.0 | 5.0 | 0.00 | 0.00 | 0.00 | 75 | 1026.4 |
| 20260509074003 | 50 | 245 | 2.0 | 5.0 | 0.00 | 0.00 | 0.00 | 75 | 1026.3 |
| 20260509073503 | 50 | 243 | 2.0 | 5.0 | 0.00 | 0.00 | 0.00 | 75 | 1026.3 |
| 20260509073005 | 51 | 254 | 1.0 | 5.0 | 0.00 | 0.00 | 0.00 | 74 | 1026.3 |
| 20260509072502 | 51 | 241 | 1.0 | 4.0 | 0.00 | 0.00 | 0.00 | 73 | 1026.2 |
| 20260509072003 | 51 | 242 | 1.0 | 4.0 | 0.00 | 0.00 | 0.00 | 72 | 1026.2 |
| 20260509071506 | 52 | 243 | 1.0 | 4.0 | 0.00 | 0.00 | 0.00 | 72 | 1026.1 |
| 20260509071003 | 52 | 241 | 2.0 | 4.0 | 0.00 | 0.00 | 0.00 | 71 | 1025.9 |
| 20260509070506 | 52 | 239 | 2.0 | 4.0 | 0.00 | 0.00 | 0.00 | 71 | 1025.8 |
| 20260509070013 | 53 | 242 | 2.0 | 4.0 | 0.00 | 0.00 | 0.00 | 70 | 1025.8 |
| 20260509065507 | 53 | 241 | 2.0 | 4.0 | 0.00 | 0.00 | 0.00 | 69 | 1025.8 |
| 20260509065007 | 54 | 215 | 0.0 | 2.0 | 0.00 | 0.00 | 0.00 | 69 | 1025.8 |
| 20260509064522 | 53 | 204 | 0.0 | 2.0 | 0.00 | 0.00 | 0.00 | 69 | 1025.7 |
| 20260509064009 | 53 | 172 | 0.0 | 2.0 | 0.00 | 0.00 | 0.00 | 70 | 1025.8 |
| 20260509063510 | 53 | 157 | 0.0 | 4.0 | 0.00 | 0.00 | 0.00 | 69 | 1025.7 |
| 20260509063021 | 53 | 147 | 0.0 | 4.0 | 0.00 | 0.00 | 0.00 | 69 | 1025.7 |
| 20260509062503 | 54 | 121 | 1.0 | 4.0 | 0.00 | 0.00 | 0.00 | 69 | 1025.8 |
| 20260509062003 | 53 | 157 | 1.0 | 5.0 | 0.00 | 0.00 | 0.00 | 68 | 1025.8 |
| 20260509061502 | 54 | 146 | 1.0 | 5.0 | 0.00 | 0.00 | 0.00 | 68 | 1025.7 |
| 20260509061003 | 54 | 151 | 2.0 | 5.0 | 0.00 | 0.00 | 0.00 | 68 | 1025.6 |
| 20260509060503 | 54 | 156 | 2.0 | 8.0 | 0.00 | 0.00 | 0.00 | 68 | 1025.6 |
| 20260509060010 | 54 | 200 | 2.0 | 9.0 | 0.00 | 0.00 | 0.00 | 67 | 1025.6 |
| 20260509055507 | 54 | 147 | 3.0 | 10.0 | 0.00 | 0.00 | 0.00 | 67 | 1025.6 |
| 20260509055008 | 54 | 135 | 4.0 | 10.0 | 0.00 | 0.00 | 0.00 | 66 | 1025.5 |
| 20260509054512 | 54 | 170 | 2.0 | 6.0 | 0.00 | 0.00 | 0.00 | 67 | 1025.5 |
| 20260509054008 | 54 | 162 | 2.0 | 6.0 | 0.00 | 0.00 | 0.00 | 67 | 1025.5 |
| 20260509053507 | 54 | 158 | 2.0 | 8.0 | 0.00 | 0.00 | 0.00 | 66 | 1025.6 |
| 20260509053022 | 54 | 142 | 2.0 | 8.0 | 0.00 | 0.00 | 0.00 | 67 | 1025.5 |
| 20260509052509 | 54 | 127 | 2.0 | 10.0 | 0.00 | 0.00 | 0.00 | 66 | 1025.5 |
| 20260509052012 | 54 | 142 | 2.0 | 10.0 | 0.00 | 0.00 | 0.00 | 66 | 1025.5 |
| 20260509051523 | 55 | 145 | 3.0 | 9.0 | 0.00 | 0.00 | 0.00 | 66 | 1025.3 |
| 20260509051003 | 55 | 154 | 2.0 | 6.0 | 0.00 | 0.00 | 0.00 | 66 | 1025.4 |
| 20260509050503 | 55 | 158 | 3.0 | 8.0 | 0.00 | 0.00 | 0.00 | 65 | 1025.3 |
| 20260509050009 | 55 | 141 | 4.0 | 8.0 | 0.00 | 0.00 | 0.00 | 63 | 1025.3 |
| 20260509045503 | 55 | 108 | 2.0 | 9.0 | 0.00 | 0.00 | 0.00 | 64 | 1025.3 |
| 20260509045003 | 55 | 139 | 1.0 | 9.0 | 0.00 | 0.00 | 0.00 | 65 | 1025.4 |
| 20260509044510 | 56 | 134 | 2.0 | 8.0 | 0.00 | 0.00 | 0.00 | 63 | 1025.5 |
| 20260509044007 | 56 | 150 | 2.0 | 8.0 | 0.00 | 0.00 | 0.00 | 63 | 1025.4 |
| 20260509043505 | 57 | 136 | 4.0 | 9.0 | 0.00 | 0.00 | 0.00 | 63 | 1025.5 |
| 20260509043032 | 57 | 143 | 3.0 | 8.0 | 0.00 | 0.00 | 0.00 | 63 | 1025.5 |
| 20260509042510 | 57 | 151 | 2.0 | 6.0 | 0.00 | 0.00 | 0.00 | 63 | 1025.3 |
| 20260509042007 | 57 | 107 | 3.0 | 6.0 | 0.00 | 0.00 | 0.00 | 64 | 1025.3 |
| 20260509041520 | 57 | 131 | 1.0 | 4.0 | 0.00 | 0.00 | 0.00 | 64 | 1025.2 |
| 20260509041009 | 57 | 110 | 1.0 | 4.0 | 0.00 | 0.00 | 0.00 | 63 | 1025.3 |
| 20260509040507 | 57 | 112 | 1.0 | 4.0 | 0.00 | 0.00 | 0.00 | 64 | 1025.2 |
| 20260509040024 | 57 | 147 | 1.0 | 4.0 | 0.00 | 0.00 | 0.00 | 66 | 1025.1 |
| 20260509035510 | 57 | 121 | 1.0 | 4.0 | 0.00 | 0.00 | 0.00 | 64 | 1025.1 |
| 20260509035004 | 57 | 209 | 2.0 | 4.0 | 0.00 | 0.00 | 0.00 | 61 | 1025.1 |
| 20260509034510 | 57 | 169 | 2.0 | 6.0 | 0.00 | 0.00 | 0.00 | 62 | 1025.2 |
| 20260509034004 | 56 | 142 | 2.0 | 6.0 | 0.00 | 0.00 | 0.00 | 65 | 1025.2 |
| 20260509033509 | 56 | 247 | 0.0 | 6.0 | 0.00 | 0.00 | 0.00 | 64 | 1025.1 |
| 20260509033010 | 55 | 155 | 1.0 | 6.0 | 0.00 | 0.00 | 0.00 | 66 | 1025.3 |
| 20260509032511 | 55 | 263 | 2.0 | 4.0 | 0.00 | 0.00 | 0.00 | 63 | 1025.2 |
| 20260509032016 | 55 | 164 | 0.0 | 5.0 | 0.00 | 0.00 | 0.00 | 66 | 1025.0 |
| 20260509031522 | 55 | 250 | 1.0 | 5.0 | 0.00 | 0.00 | 0.00 | 65 | 1025.1 |
| 20260509031011 | 54 | 230 | 1.0 | 7.0 | 0.00 | 0.00 | 0.00 | 66 | 1025.1 |
| 20260509030511 | 54 | 248 | 2.0 | 7.0 | 0.00 | 0.00 | 0.00 | 65 | 1025.1 |
| 20260509030034 | 54 | 244 | 3.0 | 7.0 | 0.00 | 0.00 | 0.00 | 68 | 1025.1 |
| 20260509025507 | 54 | 220 | 3.0 | 7.0 | 0.00 | 0.00 | 0.00 | 65 | 1025.1 |
| 20260509025014 | 54 | 170 | 1.0 | 7.0 | 0.00 | 0.00 | 0.00 | 67 | 1025.2 |
| 20260509024526 | 53 | 256 | 5.0 | 7.0 | 0.00 | 0.00 | 0.00 | 66 | 1025.2 |
| 20260509024009 | 53 | 258 | 3.0 | 7.0 | 0.00 | 0.00 | 0.00 | 67 | 1025.2 |
| 20260509023503 | 53 | 215 | 3.0 | 7.0 | 0.00 | 0.00 | 0.00 | 68 | 1025.2 |
| 20260509023037 | 52 | 206 | 2.0 | 8.0 | 0.00 | 0.00 | 0.00 | 70 | 1025.3 |
| 20260509022507 | 52 | 222 | 2.0 | 8.0 | 0.00 | 0.00 | 0.00 | 71 | 1025.3 |
| 20260509022009 | 52 | 235 | 3.0 | 10.0 | 0.00 | 0.00 | 0.00 | 70 | 1025.5 |
| 20260509021516 | 52 | 249 | 4.0 | 10.0 | 0.00 | 0.00 | 0.00 | 71 | 1025.6 |
| 20260509021009 | 51 | 225 | 4.0 | 9.0 | 0.00 | 0.00 | 0.00 | 70 | 1025.6 |
| 20260509020512 | 51 | 236 | 4.0 | 7.0 | 0.00 | 0.00 | 0.00 | 72 | 1025.6 |
| 20260509020019 | 51 | 256 | 3.0 | 7.0 | 0.00 | 0.00 | 0.00 | 72 | 1025.7 |
| 20260509015510 | 51 | 243 | 3.0 | 7.0 | 0.00 | 0.00 | 0.00 | 72 | 1025.8 |
| 20260509015012 | 51 | 249 | 3.0 | 5.0 | 0.00 | 0.00 | 0.00 | 72 | 1025.8 |
| 20260509014528 | 51 | 244 | 0.0 | 4.0 | 0.00 | 0.00 | 0.00 | 73 | 1025.8 |
| 20260509014011 | 51 | 196 | 1.0 | 5.0 | 0.00 | 0.00 | 0.00 | 73 | 1025.9 |
| 20260509013509 | 50 | 241 | 1.0 | 5.0 | 0.00 | 0.00 | 0.00 | 73 | 1025.8 |
| 20260509013026 | 50 | 147 | 1.0 | 5.0 | 0.00 | 0.00 | 0.00 | 72 | 1025.8 |
| 20260509012510 | 50 | 165 | 2.0 | 5.0 | 0.00 | 0.00 | 0.00 | 72 | 1025.8 |
| 20260509012013 | 50 | 172 | 2.0 | 4.0 | 0.00 | 0.00 | 0.00 | 73 | 1025.8 |
| 20260509011531 | 50 | 180 | 1.0 | 3.0 | 0.00 | 0.00 | 0.00 | 75 | 1025.9 |
| 20260509011012 | 49 | 192 | 0.0 | 5.0 | 0.00 | 0.00 | 0.00 | 74 | 1026.0 |
| 20260509010515 | 49 | 172 | 2.0 | 5.0 | 0.00 | 0.00 | 0.00 | 75 | 1025.9 |
| 20260509010029 | 49 | 250 | 2.0 | 5.0 | 0.00 | 0.00 | 0.00 | 75 | 1025.8 |
| 20260509005511 | 48 | 129 | 1.0 | 4.0 | 0.00 | 0.00 | 0.00 | 76 | 1025.9 |
| 20260509005012 | 48 | 225 | 0.0 | 6.0 | 0.00 | 0.00 | 0.00 | 75 | 1025.9 |
| 20260509004533 | 48 | 156 | 1.0 | 5.0 | 0.00 | 0.00 | 0.00 | 76 | 1026.0 |
| 20260509004011 | 47 | 287 | 0.0 | 3.0 | 0.00 | 0.00 | 0.00 | 78 | 1026.0 |
| 20260509003511 | 47 | 269 | 0.0 | 3.0 | 0.00 | 0.00 | 0.00 | 79 | 1026.0 |
| 20260509003026 | 46 | 337 | 0.0 | 3.0 | 0.00 | 0.00 | 0.00 | 81 | 1025.9 |
| 20260509002516 | 46 | 31 | 0.0 | 3.0 | 0.00 | 0.00 | 0.00 | 82 | 1025.9 |
| 20260509002012 | 45 | 354 | 0.0 | 3.0 | 0.00 | 0.00 | 0.00 | 82 | 1025.8 |
| 20260509001528 | 45 | 251 | 0.0 | 4.0 | 0.00 | 0.00 | 0.00 | 82 | 1025.9 |
| 20260509001010 | 44 | 250 | 2.0 | 4.0 | 0.00 | 0.00 | 0.00 | 81 | 1025.8 |
| 20260509000509 | 44 | 266 | 1.0 | 4.0 | 0.00 | 0.00 | 0.00 | 83 | 1025.9 |
| 20260509000031 | 44 | 236 | 0.0 | 5.0 | 0.00 | 0.00 | 0.00 | 84 | 1025.8 |
| 20260508235508 | 44 | 287 | 2.0 | 5.0 | 0.00 | 0.00 | 0.00 | 84 | 1025.8 |
| 20260508235012 | 43 | 225 | 0.0 | 4.0 | 0.00 | 0.00 | 0.00 | 85 | 1025.9 |
| 20260508234521 | 43 | 172 | 1.0 | 4.0 | 0.00 | 0.00 | 0.00 | 86 | 1025.8 |
| 20260508234013 | 42 | 210 | 0.0 | 4.0 | 0.00 | 0.00 | 0.00 | 86 | 1025.8 |
| 20260508233510 | 42 | 249 | 2.0 | 7.0 | 0.00 | 0.00 | 0.00 | 86 | 1025.7 |
| 20260508233024 | 42 | 237 | 2.0 | 7.0 | 0.00 | 0.00 | 0.00 | 86 | 1025.7 |
| 20260508232511 | 42 | 260 | 2.0 | 5.0 | 0.00 | 0.00 | 0.00 | 88 | 1025.7 |
| 20260508232010 | 42 | 254 | 2.0 | 5.0 | 0.00 | 0.00 | 0.00 | 87 | 1025.7 |
| 20260508231530 | 41 | 282 | 1.0 | 5.0 | 0.00 | 0.00 | 0.00 | 87 | 1025.8 |
| 20260508231009 | 41 | 242 | 2.0 | 4.0 | 0.00 | 0.00 | 0.00 | 88 | 1025.7 |
| 20260508230513 | 41 | 268 | 1.0 | 0.0 | 0.00 | 0.00 | 0.00 | 88 | 1025.7 |
| 20260508230028 | 0 | 0.0 | 0.0 | 0.00 | 0.00 | 0.00 | 1025.5 | ||
| 20260508225511 | 0 | 0.0 | 0.0 | 0.00 | 0.00 | 0.00 | 1025.5 | ||
| 20260508225011 | 0 | 0.0 | 0.0 | 0.00 | 0.00 | 0.00 | 1025.5 | ||
| 20260508224534 | 40 | 0.0 | 0.0 | 0.00 | 0.00 | 0.00 | 89 | 1025.3 | |
| 20260508224012 | 40 | 253 | 3.0 | 0.0 | 0.00 | 0.00 | 0.00 | 89 | 1025.3 |
| 20260508223509 | 0 | 0.0 | 0.0 | 0.00 | 0.00 | 0.00 | 1025.1 | ||
| 20260508223036 | 0 | 0.0 | 0.0 | 0.00 | 0.00 | 0.00 | 1025.2 | ||
| 20260508222513 | 0 | 0.0 | 0.0 | 0.00 | 0.00 | 0.00 | 1024.9 | ||
| 20260508222011 | 0 | 0.0 | 0.0 | 0.00 | 0.00 | 0.00 | 1024.9 | ||
| 20260508221534 | 0 | 0.0 | 0.0 | 0.00 | 0.00 | 0.00 | 1025.1 | ||
| 20260508221011 | 0 | 0.0 | 0.0 | 0.00 | 0.00 | 0.00 | 1025.0 | ||
| 20260508220511 | 0 | 0.0 | 0.0 | 0.00 | 0.00 | 0.00 | 1025.0 | ||
| 20260508220031 | 0 | 0.0 | 0.0 | 0.00 | 0.00 | 0.00 | 1025.0 | ||
| 20260508215512 | 0 | 0.0 | 0.0 | 0.00 | 0.00 | 0.00 | 91 | 1024.9 | |
| 20260508215012 | 39 | 2.0 | 4.0 | 0.00 | 0.00 | 0.00 | 91 | 1024.7 | |
| 20260508214531 | 39 | 276 | 1.0 | 4.0 | 0.00 | 0.00 | 0.00 | 91 | 1024.8 |
| 20260508214013 | 39 | 277 | 2.0 | 7.0 | 0.00 | 0.00 | 0.00 | 91 | 1024.9 |
| 20260508213510 | 39 | 268 | 1.0 | 8.0 | 0.00 | 0.00 | 0.00 | 91 | 1024.8 |
| 20260508213010 | 39 | 233 | 4.0 | 8.0 | 0.00 | 0.00 | 0.00 | 91 | 1024.8 |
| 20260508212513 | 39 | 251 | 1.0 | 7.0 | 0.00 | 0.00 | 0.00 | 91 | 1024.8 |
| 20260508212005 | 39 | 244 | 3.0 | 7.0 | 0.00 | 0.00 | 0.00 | 91 | 1024.7 |
| 20260508211506 | 39 | 276 | 2.0 | 6.0 | 0.00 | 0.00 | 0.00 | 91 | 1024.6 |
| 20260508211004 | 39 | 243 | 3.0 | 6.0 | 0.00 | 0.00 | 0.00 | 91 | 1024.4 |
| 20260508210510 | 39 | 245 | 3.0 | 6.0 | 0.00 | 0.00 | 0.00 | 91 | 1024.4 |
| 20260508210028 | 39 | 218 | 4.0 | 8.0 | 0.00 | 0.00 | 0.00 | 91 | 1024.4 |
| 20260508205505 | 39 | 253 | 3.0 | 8.0 | 0.00 | 0.00 | 0.00 | 91 | 1024.2 |
| 20260508205013 | 39 | 241 | 4.0 | 8.0 | 0.00 | 0.00 | 0.00 | 91 | 1024.3 |
| 20260508204532 | 39 | 240 | 2.0 | 8.0 | 0.00 | 0.00 | 0.00 | 91 | 1024.2 |
| 20260508204010 | 39 | 235 | 1.0 | 12.0 | 0.00 | 0.00 | 0.00 | 91 | 1024.1 |
| 20260508203511 | 39 | 239 | 6.0 | 10.0 | 0.00 | 0.00 | 0.00 | 91 | 1024.1 |
| 20260508203031 | 39 | 253 | 5.0 | 10.0 | 0.00 | 0.00 | 0.00 | 91 | 1024.0 |
| 20260508202508 | 39 | 262 | 1.0 | 7.0 | 0.00 | 0.00 | 0.00 | 91 | 1023.9 |
| 20260508202003 | 39 | 240 | 3.0 | 8.0 | 0.00 | 0.00 | 0.00 | 91 | 1023.9 |